Weather History for 71706 - March, 2013

Change the Weather History Date:

Sunday, March 31, 2013

  Actual Average Record
Temperature  
Mean Temperature 28 °F -  
Max Temperature 43 °F 43 °F - ()
Min Temperature 14 °F 29 °F - ()
Degree Days  
Heating Degree Days 36    
Moisture  
Dew Point 16 °F    
Average Humidity 55    
Maximum Humidity 86    
Minimum Humidity 18    
Precipitation  
Precipitation 0.00 in 0.12 in - ()
Sea Level Pressure  
Sea Level Pressure 30.09 in    
Wind  
Wind Speed 4 mph ()    
Max Wind Speed 10 mph    
Max Gust Speed -    
Visibility 15.0 miles    
Events      
T = Trace of Precipitation, MM = Missing Value Source: Averaged Metar Reports

Daily Weather History Graph

Daily Weather History Graph

Search for Another Location

Airport or City:

Trip Planner

Search our weather history database for the weather conditions in past years. The results will help you decide how hot, cold, wet, or windy it might be!

Date:

Astronomy

Mar. 31, 2013 Rise Set
Actual Time 6:53 AM ADT 7:40 PM ADT
Civil Twilight 6:23 AM ADT 8:10 PM ADT
Nautical Twilight 5:47 AM ADT 8:46 PM ADT
Astronomical Twilight 5:09 AM ADT 9:24 PM ADT
Moon No Moon Rise 9:22 AM ADT (3/31)
Length of Visible Light 13h 47m
Length of Day
12h 46m
Waning Gibbous, 78% of the Moon is Illuminated
Mar 31
Waning Gibbous
Apr 3
Last Quarter
Apr 10
New
Apr 18
First Quarter
Apr 25
Full

Hourly Weather History & Observations

Time (ADT) Temp. Windchill Dew Point Humidity Pressure Visibility Wind Dir Wind Speed Gust Speed Precip Events Conditions
12:00 AM 23.0 °F 15.8 °F 19.4 °F 86% 30.03 in 15.0 mi West 5.8 mph - N/A   Clear
1:00 AM 23.0 °F 17.0 °F 17.6 °F 80% 30.04 in 15.0 mi West 4.6 mph - N/A   Clear
2:00 AM 23.0 °F 15.8 °F 17.6 °F 80% 30.06 in 15.0 mi West 5.8 mph - N/A   Clear
3:00 AM 20 °F - 16 °F 78% 30.06 in 15 mi Calm Calm - -  
3:00 AM 21.2 °F - 15.8 °F 80% 30.06 in 15.0 mi Calm Calm - N/A   Clear
4:00 AM 21.2 °F 14.9 °F 14.0 °F 74% 30.06 in 15.0 mi WNW 4.6 mph - N/A   Clear
5:00 AM 23.0 °F - 12.2 °F 63% 30.06 in 15.0 mi NW 2.3 mph - N/A   Clear
6:00 AM 17.6 °F 10.7 °F 14.0 °F 86% 30.07 in 15.0 mi WNW 4.6 mph - N/A   Partly Cloudy
7:00 AM 17.6 °F 12.3 °F 14.0 °F 86% 30.09 in 15.0 mi WNW 3.5 mph - N/A   Partly Cloudy
8:00 AM 21.2 °F - 15.8 °F 80% 30.10 in 15.0 mi Calm Calm - N/A   Partly Cloudy
9:00 AM 28 °F - 17 °F 51% 30.12 in 15 mi WSW 6.9 mph - -   Scattered Clouds
9:00 AM 28.4 °F 21.2 °F 17.6 °F 64% 30.12 in 15.0 mi WSW 6.9 mph - N/A   Partly Cloudy
10:00 AM 33.8 °F 29.6 °F 17.6 °F 52% 30.12 in 15.0 mi SW 4.6 mph - N/A   Partly Cloudy
11:00 AM 37.4 °F - 12.2 °F 36% 30.13 in 15.0 mi South 2.3 mph - N/A   Partly Cloudy
12:00 PM 39.2 °F 35.9 °F 17.6 °F 42% 30.13 in 15.0 mi South 4.6 mph - N/A   Partly Cloudy
1:00 PM 39.2 °F 35.9 °F 15.8 °F 39% 30.13 in 15.0 mi SSE 4.6 mph - N/A   Partly Cloudy
2:00 PM 41.0 °F 36.4 °F 17.6 °F 39% 30.11 in 15.0 mi SSE 6.9 mph - N/A   Partly Cloudy
3:00 PM 41 °F - 12 °F 18% 30.11 in 15 mi SSW 4.6 mph - -   Clear
3:00 PM 41.0 °F 39.0 °F 12.2 °F 31% 30.10 in 15.0 mi SW 3.5 mph - N/A   Partly Cloudy
4:00 PM 42.8 °F 41.1 °F 12.2 °F 29% 30.09 in 15.0 mi South 3.5 mph - N/A   Partly Cloudy
5:00 PM 42.8 °F 40.1 °F 12.2 °F 29% 30.09 in 15.0 mi East 4.6 mph - N/A   Partly Cloudy
6:00 PM 42.8 °F 40.1 °F 15.8 °F 34% 30.09 in 15.0 mi ENE 4.6 mph - N/A   Partly Cloudy
7:00 PM 41.0 °F 39.0 °F 12.2 °F 31% 30.09 in 15.0 mi ESE 3.5 mph - N/A   Partly Cloudy
7:48 PM 35.6 °F 29.2 °F 17.6 °F 48% 30.10 in 15.0 mi SE 8.1 mph - N/A   Partly Cloudy
8:00 PM 33.8 °F 28.6 °F 19.4 °F 56% 30.10 in 15.0 mi SSE 5.8 mph - N/A   Partly Cloudy
9:00 PM 32 °F - 19 °F 45% 30.10 in 15 mi ESE 8.1 mph - -   Clear
9:00 PM 32.0 °F 25.6 °F 19.4 °F 60% 30.10 in 15.0 mi ESE 6.9 mph - N/A   Partly Cloudy
10:00 PM 32.0 °F 23.6 °F 15.8 °F 51% 30.11 in 15.0 mi SE 10.4 mph - N/A   Partly Cloudy
11:00 PM 30.2 °F 22.6 °F 17.6 °F 60% 30.09 in 15.0 mi ESE 8.1 mph - N/A   Scattered Clouds